Weather in Pyshminskaya

Russia / Sverdlovsk Oblast     56°48′28″N   62°23′10″E
temp.,
°C
wind,
m/s
gust,
m/s
humid.,
%
clouds,
%
prec.,
mm/h
press.,
hPa
HPBL,
m
5 august, thu
thu523:00+19e378845 0.6 1012139
02:00+19sse478310 0.1 1010105
05:00+17sw22875 0.1 101026
08:00+23sw11725 0.1 1009161
11:00+29s224762 0.1 1008709
14:00+33ssw333586 0.0 10071684
17:00+33ssw243410 0.0 10061786
20:00+29w484547 0.1 1005267
6 august, fri
fri623:00+20wnw357998 0.3 100683
02:00+19wnw499599 1.9 1006240
05:00+17wnw489737 1.9 1007298
08:00+17wnw578425 0.0 1008536
11:00+21wnw566195 0.0 10081035
14:00+20nw566498 0.0 10091102
17:00+19nw5776100 0.1 1009642
20:00+17nw51090100 0.3 1010591
7 august, sat
sat723:00+16nw51192100 0.8 1010452
02:00+15nw51194100 0.6 1010437
05:00+15nw41093100 0.6 1010366
08:00+16nw5108231 0.0 1011515
11:00+21nw67470 0.0 10111235
14:00+23nw67390 0.0 10111719
17:00+23nnw673926 0.0 10112074
20:00+19nne476993 0.1 1012355
8 august, sun
sun823:00+16nw5108012 0.3 1013502
02:00+12wnw4109175 0.0 1013269
05:00+12wnw5108695 0.0 1013350
08:00+13nw61176100 0.0 1014494
11:00+16nnw61069100 0.0 1014770
14:00+17nnw61067100 0.0 1015754
17:00+17nnw51169100 0.0 1016670
20:00+17nnw410735 0.0 1016373
9 august, mon
mon923:00+14nnw36881 0.0 1016102
02:00+14nw38915 0.0 1017168
05:00+13nw39975 0.0 1018188
08:00+17n46775 0.0 1018390
11:00+22nnw4457100 0.0 10171025
14:00+25nnw444999 0.0 10171656
17:00+25nnw444418 0.0 10171843
20:00+20nnw346198 0.0 101773